Terug naar catalogus

STARLINK-31174

ActiefCommunicatieVLEO
NORAD 58808·PAYLOAD·🇺🇸 United States

Gelanceerd Jan 15, 2024 vanaf Cape Canaveral Space Force Station

Loading…

Volgende Passages (komende 24 uur)

TLE

VersSource: CelesTrak SupGP

Epoch: Sep 15, 2026, 03:13 UTC

1 58808C 24012X   26258.13451389 -.00002145  00000+0 -77713-4 0  2585
2 58808  42.9996 174.9609 0001232 274.1568  88.9694 15.27574299    13

Volg STARLINK-31174 in realtime met AllMySat

Download on the App Store